This is the latest recevied weather packets stored in our database for station/object W1HVD. If no packets are shown the sender has not sent any weather packets the latest 10 day(s).
| Time | Temp. | Humidity | Pressure | Rain* | Wind** | Luminosity | Snow |
|---|---|---|---|---|---|---|---|
| 1777752471 | 12.22° C | 73% | 1010.7 hPa | 0 mm | - | 51 W/m² | - |
| 1777752167 | 12.22° C | 74% | 1010.7 hPa | 0 mm | - | 65 W/m² | - |
| 1777751866 | 12.22° C | 74% | 1010.8 hPa | 0 mm | - | 81 W/m² | - |
| 1777751562 | 12.22° C | 73% | 1010.9 hPa | 0 mm | - | 99 W/m² | - |
| 1777751258 | 11.67° C | 74% | 1010.7 hPa | 0 mm | - | 113 W/m² | - |
| 1777750956 | 11.67° C | 72% | 1011 hPa | 0 mm | - | 118 W/m² | - |
| 1777750651 | 11.67° C | 73% | 1010.9 hPa | 0 mm | - | 112 W/m² | - |
| 1777750349 | 11.67° C | 71% | 1010.9 hPa | 0 mm | - | 143 W/m² | - |
| 1777750049 | 11.67° C | 71% | 1011 hPa | 0 mm | - | 120 W/m² | - |
| 1777749747 | 11.67° C | 73% | 1011.1 hPa | 0 mm | - | 125 W/m² | - |
| 1777749443 | 11.67° C | 70% | 1011.3 hPa | 0 mm | - | 139 W/m² | - |
| 1777749141 | 11.67° C | 72% | 1011.2 hPa | 0 mm | - | 102 W/m² | - |
| 1777748838 | 11.67° C | 71% | 1011.2 hPa | 0 mm | - | 120 W/m² | - |
| 1777748536 | 12.22° C | 69% | 1011.1 hPa | 0 mm | - | 183 W/m² | - |
| 1777748235 | 12.22° C | 64% | 1011.2 hPa | 0 mm | - | 153 W/m² | - |
| 1777747932 | 12.22° C | 64% | 1011.1 hPa | 0 mm | - | 111 W/m² | - |
| 1777747628 | 12.22° C | 64% | 1011.3 hPa | 0 mm | - | 138 W/m² | - |
| 1777747324 | 12.22° C | 64% | 1011.4 hPa | 0 mm | - | 114 W/m² | - |
| 1777747021 | 12.78° C | 59% | 1011.4 hPa | 0 mm | - | 100 W/m² | - |
| 1777746717 | 12.78° C | 56% | 1011.5 hPa | 0 mm | - | 115 W/m² | - |
| 1777746412 | 13.33° C | 52% | 1011.5 hPa | 0 mm | - | 124 W/m² | - |
| 1777746108 | 13.89° C | 53% | 1011.3 hPa | 0 mm | - | 172 W/m² | - |
| 1777745806 | 13.89° C | 51% | 1011.4 hPa | 0 mm | - | 254 W/m² | - |
| 1777745504 | 13.89° C | 53% | 1011.4 hPa | 0 mm | - | 198 W/m² | - |
| 1777745201 | 13.89° C | 58% | 1011.5 hPa | 0 mm | - | 386 W/m² | - |
* Rain latest hour (hover to see other rain measurements)
** Current wind speed in m/s (hover to see current wind gust speed)